Puyallup, WA

8:04 AM PST on January 19, 2018 (GMT -0800)
Pierce County - Thun Field

Weather History for KPLU - January, 2013

Change the Weather History Date:

Saturday, January 5, 2013

  Actual Average (KTCM) Record (KTCM)
Temperature  
Mean Temperature 40 °F -  
Max Temperature 44 °F 44 °F 55 °F (1990)
Min Temperature 37 °F 32 °F 10 °F (1979)
Degree Days  
Heating Degree Days 24    
Moisture  
Dew Point 39 °F    
Average Humidity 99    
Maximum Humidity 100    
Minimum Humidity 81    
Precipitation  
Precipitation 0.07 in - - ()
Sea Level Pressure  
Sea Level Pressure 30.15 in    
Wind  
Wind Speed 0 mph (North)    
Max Wind Speed 0 mph    
Max Gust Speed -    
Visibility 5 miles    
Events Fog , Rain    
Averages and records for this station are not official NWS values.
T = Trace of Precipitation, MM = Missing Value Source: NWS Daily Summary

Daily Weather History Graph

Daily Weather History Graph

Search for Another Location

Airport or City:

Trip Planner

Search our weather history database for the weather conditions in past years. The results will help you decide how hot, cold, wet, or windy it might be!

Date:

Astronomy

Jan. 05, 2013 Rise Set
Actual Time 7:54 AM PST 4:34 PM PST
Civil Twilight 7:19 AM PST 5:10 PM PST
Nautical Twilight 6:41 AM PST 5:48 PM PST
Astronomical Twilight 6:04 AM PST 6:25 PM PST
Moon 12:54 AM PST (1/5) 11:39 AM PST (1/5)
Length of Visible Light 9h 50m
Length of Day
8h 39m
Last Quarter, 43% of the Moon is Illuminated
Jan 5
Last Quarter
Jan 11
New
Jan 18
First Quarter
Jan 26
Full
Feb 3
Last Quarter

Hourly Weather History & Observations

Time (PST) Temp. Dew Point Humidity Pressure Visibility Wind Dir Wind Speed Gust Speed Precip Events Conditions
12:15 AM 37.4 °F 37.4 °F 100% 30.16 in 1.8 mi Calm Calm - N/A   Clear
12:35 AM 37.4 °F 37.4 °F 100% 30.15 in 1.8 mi Calm Calm - N/A   Clear
12:55 AM 37.4 °F 37.4 °F 100% 30.15 in 1.2 mi Calm Calm - N/A   Scattered Clouds
1:15 AM 39.2 °F 39.2 °F 100% 30.16 in 1.0 mi Calm Calm - N/A   Overcast
1:35 AM 39.2 °F 39.2 °F 100% 30.16 in 0.2 mi Calm Calm - N/A Fog Fog
1:55 AM 39.2 °F 39.2 °F 100% 30.15 in 0.5 mi Calm Calm - N/A Fog Fog
2:15 AM 39.2 °F 39.2 °F 100% 30.16 in 0.8 mi Calm Calm - N/A   Overcast
2:35 AM 39.2 °F 39.2 °F 100% 30.17 in 0.5 mi Calm Calm - N/A Fog Fog
2:55 AM 39.2 °F 39.2 °F 100% 30.17 in 0.5 mi Calm Calm - N/A Fog Fog
3:15 AM 39.2 °F 39.2 °F 100% 30.17 in 0.5 mi Calm Calm - N/A Fog Fog
3:35 AM 37.4 °F 37.4 °F 100% 30.17 in 0.2 mi Calm Calm - N/A Fog Fog
3:55 AM 37.4 °F 37.4 °F 100% 30.16 in 0.5 mi Calm Calm - N/A Fog Fog
4:35 AM 37.4 °F 37.4 °F 100% 30.16 in 1.0 mi Calm Calm - N/A   Overcast
4:55 AM 37.4 °F 37.4 °F 100% 30.16 in 0.8 mi Calm Calm - N/A   Mostly Cloudy
5:15 AM 37.4 °F 37.4 °F 100% 30.16 in 0.5 mi Calm Calm - N/A Fog Fog
5:35 AM 37.4 °F 37.4 °F 100% 30.16 in 1.8 mi Calm Calm - N/A   Scattered Clouds
5:55 AM 37.4 °F 37.4 °F 100% 30.16 in 0.5 mi Calm Calm - N/A Fog Fog
6:15 AM 37.4 °F 37.4 °F 100% 30.16 in 0.5 mi Calm Calm - N/A Fog Fog
6:35 AM 37.4 °F 37.4 °F 100% 30.17 in 2.5 mi Calm Calm - N/A   Scattered Clouds
6:55 AM 37.4 °F 37.4 °F 100% 30.17 in 3.0 mi Calm Calm - N/A   Overcast
7:15 AM 37.4 °F 37.4 °F 100% 30.17 in 3.0 mi Calm Calm - N/A   Overcast
7:35 AM 37.4 °F 37.4 °F 100% 30.17 in 4.0 mi Calm Calm - N/A   Overcast
7:55 AM 39.2 °F 39.2 °F 100% 30.16 in 5.0 mi Calm Calm - N/A   Scattered Clouds
8:15 AM 39.2 °F 39.2 °F 100% 30.17 in 10.0 mi Calm Calm - N/A   Scattered Clouds
8:55 AM 39.2 °F 39.2 °F 100% 30.18 in 10.0 mi Calm Calm - N/A   Partly Cloudy
9:15 AM 41.0 °F 37.4 °F 87% 30.17 in 10.0 mi Calm Calm - N/A   Clear
9:35 AM 41.0 °F 35.6 °F 81% 30.18 in 10.0 mi Calm Calm - N/A   Clear
9:55 AM 41.0 °F 37.4 °F 87% 30.19 in 10.0 mi Calm Calm - N/A   Clear
10:15 AM 41.0 °F 39.2 °F 93% 30.20 in 10.0 mi Calm Calm - N/A Rain Light Rain
10:35 AM 41.0 °F 39.2 °F 93% 30.20 in 6.0 mi Calm Calm - N/A Rain Light Rain
10:55 AM 41.0 °F 39.2 °F 93% 30.21 in 5.0 mi Calm Calm - N/A Rain Light Rain
11:15 AM 41.0 °F 41.0 °F 100% 30.20 in 4.0 mi Calm Calm - N/A Rain Light Rain
11:35 AM 39.2 °F 39.2 °F 100% 30.19 in 4.0 mi Calm Calm - 0.02 in Rain Light Rain
11:55 AM 41.0 °F 41.0 °F 100% 30.18 in 10.0 mi Calm Calm - 0.02 in   Clear
12:15 PM 41.0 °F 41.0 °F 100% 30.17 in 10.0 mi Calm Calm - N/A   Clear
12:35 PM 41.0 °F 41.0 °F 100% 30.16 in 10.0 mi Calm Calm - N/A   Clear
12:55 PM 42.8 °F 42.8 °F 100% 30.15 in 10.0 mi Calm Calm - N/A   Clear
1:15 PM 42.8 °F 42.8 °F 100% 30.14 in 10.0 mi Calm Calm - N/A   Clear
1:35 PM 42.8 °F 42.8 °F 100% 30.13 in 10.0 mi Calm Calm - N/A   Clear
1:55 PM 42.8 °F 42.8 °F 100% 30.14 in 10.0 mi Calm Calm - N/A   Clear
2:15 PM 42.8 °F 42.8 °F 100% 30.12 in 10.0 mi Calm Calm - N/A   Clear
2:35 PM 44.6 °F 42.8 °F 93% 30.12 in 10.0 mi Calm Calm - N/A   Clear
2:55 PM 44.6 °F 42.8 °F 93% 30.13 in 10.0 mi Calm Calm - N/A   Clear
3:15 PM 42.8 °F 42.8 °F 100% 30.13 in 10.0 mi Calm Calm - N/A   Clear
3:35 PM 42.8 °F 42.8 °F 100% 30.12 in 10.0 mi Calm Calm - N/A   Clear
3:55 PM 42.8 °F 42.8 °F 100% 30.12 in 10.0 mi Calm Calm - N/A   Clear
4:15 PM 41.0 °F 41.0 °F 100% 30.13 in 10.0 mi Calm Calm - N/A   Clear
4:35 PM 41.0 °F 41.0 °F 100% 30.12 in 8.0 mi Calm Calm - N/A   Clear
4:55 PM 41.0 °F 41.0 °F 100% 30.12 in 8.0 mi Calm Calm - N/A   Clear
5:15 PM 39.2 °F 39.2 °F 100% 30.12 in 0.5 mi Calm Calm - N/A Fog Fog
5:55 PM 37.4 °F 37.4 °F 100% 30.12 in 2.0 mi Calm Calm - N/A   Clear
6:15 PM 39.2 °F 39.2 °F 100% 30.12 in 2.5 mi Calm Calm - N/A   Scattered Clouds
6:35 PM 39.2 °F 39.2 °F 100% 30.13 in 0.8 mi Calm Calm - N/A   Mist
6:55 PM 39.2 °F 39.2 °F 100% 30.12 in 2.0 mi Calm Calm - N/A   Clear
7:15 PM 39.2 °F 39.2 °F 100% 30.12 in 2.5 mi Calm Calm - N/A   Clear
7:35 PM 39.2 °F 39.2 °F 100% 30.11 in 5.0 mi Calm Calm - N/A   Clear
7:55 PM 39.2 °F 39.2 °F 100% 30.11 in 4.0 mi Calm Calm - N/A   Clear
8:35 PM 39.2 °F 39.2 °F 100% 30.12 in 3.0 mi Calm Calm - N/A   Clear
8:55 PM 39.2 °F 39.2 °F 100% 30.13 in 4.0 mi Calm Calm - N/A   Clear
9:15 PM 39.2 °F 39.2 °F 100% 30.13 in 5.0 mi Calm Calm - N/A Rain Light Rain
9:35 PM 39.2 °F 39.2 °F 100% 30.13 in 5.0 mi Calm Calm - N/A Rain Light Rain
9:55 PM 39.2 °F 39.2 °F 100% 30.13 in 4.0 mi Calm Calm - N/A Rain Light Rain
10:15 PM 39.2 °F 39.2 °F 100% 30.14 in 2.0 mi Calm Calm - 0.01 in Rain Light Rain
10:35 PM 39.2 °F 39.2 °F 100% 30.15 in 2.5 mi Calm Calm - 0.02 in Rain Light Rain
10:55 PM 39.2 °F 39.2 °F 100% 30.14 in 2.5 mi Calm Calm - 0.04 in Rain Light Rain
11:15 PM 39.2 °F 39.2 °F 100% 30.15 in 4.0 mi Calm Calm - 0.01 in Rain Light Rain
11:35 PM 39.2 °F 39.2 °F 100% 30.16 in 2.0 mi Calm Calm - 0.01 in Rain Light Rain
11:55 PM 39.2 °F 39.2 °F 100% 30.16 in 3.0 mi Calm Calm - 0.01 in   Overcast